Vorticity
12 6 1 5 11 12 10 7 -1 -7 6 14 8 4 -5 -8 -3 1 2 0 3 8 8 -2 -6 9 -2 -14 8 14 9 13 10 7 5 6 8 4 7 8 3 2 3 5 8 10 10 9 7 6 5 4 4 5 6 6 6 4 4 5 6 6 5 6 5 5 6 6 7 8 8 9 9 8 8 6 5 5 5 5 5 4 4 5 5 5
7 5 10 14 9 10 11 4 -4 -5 8 16 14 9 -3 -9 -9 -5 -1 -4 -3 2 4 -1 -3 7 -1 -11 3 9 6 7 7 11 9 7 10 7 4 5 5 6 5 5 6 8 9 8 6 6 8 7 5 6 6 6 6 5 6 5 5 5 4 4 5 5 4 4 4 5 5 6 6 6 6 4 2 3 3 3 3 4 4 4 4 5
7 8 17 17 7 8 10 1 -5 -2 14 19 10 5 -1 -9 -6 1 -1 -6 -3 -8 -8 6 7 3 -0 -5 2 6 5 5 6 10 9 8 10 10 6 4 6 6 5 5 2 4 7 6 6 7 10 9 6 7 8 7 7 6 5 5 4 4 4 4 4 3 2 2 2 1 1 1 2 2 2 1 1 1 1 2 3 3 3 3 4 4
8 18 22 12 5 9 8 1 -2 2 15 15 1 1 0 -6 1 5 -6 -12 -8 -10 -7 5 3 -1 -3 -4 2 3 2 4 5 10 14 8 3 8 10 6 6 5 4 5 3 3 5 4 3 6 10 10 8 8 8 7 7 5 4 4 4 4 4 3 3 2 1 1 1 1 1 1 2 2 1 2 2 1 2 3 3 2 2 2 3 3
5 21 22 7 4 8 6 5 3 3 11 11 0 -1 -2 -3 1 -1 -4 -5 -4 1 5 2 1 1 -6 -3 4 2 2 1 1 14 21 13 7 10 13 8 6 9 6 4 5 4 3 3 3 6 7 7 8 8 7 7 7 5 4 3 3 3 2 2 2 3 2 2 2 3 2 3 4 3 3 3 3 3 3 3 2 2 2 2 2 2
8 20 16 5 6 6 4 9 6 5 11 5 -2 -1 -1 -2 -4 -9 -7 -4 2 12 10 3 1 -7 -8 6 7 1 2 -4 1 21 18 11 15 16 19 14 7 13 12 4 5 5 3 5 5 5 5 4 7 8 6 7 6 4 4 3 3 2 2 2 2 3 2 2 2 2 2 2 3 3 4 4 4 4 3 3 2 3 3 2 2 2
8 18 13 5 6 4 6 9 6 10 13 2 -2 2 0 -1 1 -2 -6 -5 -2 -2 -5 -1 0 -7 -1 10 5 3 1 -7 10 31 16 6 12 11 17 21 12 13 18 10 5 5 5 5 5 3 3 4 5 7 6 6 5 3 2 2 2 1 2 2 2 3 3 2 1 2 2 1 1 2 3 3 3 3 2 3 3 3 3 2 3 3
8 15 12 7 5 5 6 6 7 11 12 5 -1 1 2 3 8 7 2 -1 -6 -10 -4 7 12 12 12 6 0 2 -4 -2 22 32 15 4 2 2 8 18 19 15 15 15 9 8 8 7 6 2 0 3 6 7 6 4 4 3 2 2 1 1 2 2 1 2 2 1 1 2 2 1 1 2 3 3 3 3 3 3 4 4 4 3 3 3
9 11 14 9 2 5 5 7 13 5 8 13 -5 -8 5 4 5 7 1 -4 -8 -4 7 12 13 13 9 -1 -0 6 5 13 19 9 6 6 -2 0 1 5 20 22 15 15 11 9 10 7 9 8 4 5 7 7 6 5 4 3 3 2 1 1 1 2 2 2 2 2 2 2 2 1 1 1 2 3 3 4 5 4 5 4 3 3 2 2
6 7 16 8 -3 6 8 12 16 -1 4 18 -2 -3 14 6 3 8 -1 -8 -6 5 11 9 8 5 2 -1 1 10 13 16 11 -2 2 7 -1 2 1 -3 11 21 17 15 12 10 9 7 6 8 9 8 8 7 5 5 4 4 5 4 3 4 5 6 5 4 4 3 3 3 3 2 1 2 1 2 4 6 7 7 7 6 4 4 3 3
4 5 12 7 -4 5 10 12 14 -1 1 13 3 5 14 5 2 2 -5 -5 -1 9 9 2 2 2 3 6 3 3 -1 -4 2 4 5 6 1 1 1 -3 2 13 14 13 14 11 8 10 6 3 8 11 11 9 6 5 4 3 4 4 4 5 6 7 5 4 4 3 2 1 2 3 3 5 4 2 6 10 11 10 8 7 5 5 4 4
4 5 9 9 1 4 10 12 11 2 1 7 5 6 4 0 1 -5 -5 -1 -1 5 6 3 7 6 5 7 0 -1 3 -0 1 8 9 2 -1 2 1 -4 -2 12 18 14 17 16 10 12 12 7 8 10 11 10 9 8 6 5 4 3 4 4 4 3 2 2 1 1 2 -0 -1 4 8 10 10 8 11 13 12 10 8 6 6 5 4 4
5 5 6 9 5 2 7 12 11 4 0 5 7 4 -0 0 1 -4 -4 -2 -1 3 3 2 4 -0 -3 -0 1 6 10 1 -1 14 18 2 -1 9 9 1 -1 13 23 19 18 18 13 14 16 13 9 8 9 11 11 12 11 9 9 8 8 8 8 8 8 7 6 7 8 7 7 10 13 14 13 12 12 12 10 9 8 7 6 5 5 5
3 3 5 8 5 2 6 11 13 5 1 10 12 6 3 0 0 0 -2 -4 -3 -0 1 1 2 2 -2 -3 5 12 2 -8 -2 13 16 8 5 7 7 4 1 8 20 21 20 18 11 12 15 11 6 5 5 5 5 7 10 10 10 10 9 10 11 13 14 15 17 17 16 17 17 15 11 10 11 12 10 9 8 7 7 6 5 5 5 6
2 2 5 8 5 5 6 8 14 7 2 12 13 8 5 -1 -3 -1 1 2 -1 -4 -1 3 4 7 4 -4 -2 2 -4 -1 8 7 9 13 9 3 3 4 3 6 10 13 24 27 13 6 9 8 4 2 2 4 5 7 9 9 9 8 7 8 10 10 13 16 17 17 17 19 19 12 6 6 7 8 7 7 8 6 6 6 6 7 6 8
3 1 5 8 6 9 7 6 13 9 5 13 14 8 3 -0 -1 -3 -1 7 6 2 5 7 5 4 2 -2 -1 3 3 5 7 2 2 6 5 4 3 0 4 11 8 3 16 28 19 8 6 6 6 8 9 10 11 8 6 6 7 8 8 8 9 8 11 13 10 9 10 12 12 10 9 11 10 7 6 9 9 7 7 7 6 8 8 9
5 2 5 6 5 8 7 6 10 7 7 14 14 9 4 1 3 -2 -4 2 2 3 10 9 6 7 7 1 -0 -0 -4 1 13 16 10 7 8 7 2 2 7 9 8 5 7 16 18 13 8 5 4 7 10 11 9 5 4 8 9 9 8 8 9 8 7 6 4 5 7 4 3 4 7 11 12 10 8 10 11 9 8 7 7 8 9 10
8 4 4 4 7 9 8 10 11 7 7 9 7 9 6 -2 -3 -3 -3 2 1 -1 4 5 2 6 8 4 7 3 -5 7 25 26 16 10 8 4 2 7 6 1 6 10 10 14 16 14 13 14 11 9 10 10 9 7 8 10 8 5 6 9 9 7 5 4 3 7 9 4 1 2 5 9 12 13 11 8 7 8 6 5 6 8 8 9
8 8 6 3 7 9 8 9 10 7 8 7 6 9 7 -2 -4 -1 -4 -3 4 1 -1 1 -2 -1 -0 -2 4 4 2 10 12 7 8 6 3 6 7 6 -2 -3 8 13 13 19 24 22 17 16 17 17 17 16 13 12 10 9 8 5 7 10 8 6 8 9 8 9 7 2 2 2 2 6 10 12 13 9 3 3 6 8 8 8 9 8
9 12 11 7 9 12 10 4 4 9 8 7 9 6 7 5 -1 4 3 -5 -1 3 1 -0 -5 -4 -2 -2 3 4 8 14 5 4 12 6 1 7 8 2 -5 2 17 15 9 15 26 30 26 21 18 13 11 9 7 7 8 9 9 7 7 8 6 5 6 8 9 11 9 6 9 5 -1 5 11 9 12 14 9 4 5 9 11 12 10 7
12 12 11 13 13 11 8 1 2 14 11 9 14 10 14 18 6 4 11 4 -2 0 3 3 1 5 6 4 6 5 6 10 2 4 14 9 4 6 2 -2 -2 11 19 9 3 7 11 20 28 30 24 17 15 13 8 8 8 7 6 6 6 4 4 4 5 6 7 9 11 10 9 5 -1 5 10 6 10 16 15 11 4 3 8 11 11 8
9 10 9 17 16 5 5 7 9 16 15 13 15 10 11 17 7 -2 2 5 4 3 7 8 4 8 15 18 16 7 5 6 -1 -0 10 11 5 -1 -3 -2 6 19 13 0 5 8 0 5 18 22 19 17 18 17 15 13 7 5 4 4 5 6 8 8 5 7 7 7 13 11 6 5 4 6 7 7 13 15 10 6 1 -1 4 9 11 10
17 15 9 12 15 9 9 12 8 9 14 13 12 10 9 9 7 4 3 3 1 1 7 7 1 4 11 15 12 4 5 9 1 -5 -2 1 -2 -5 -2 3 9 16 5 -2 10 10 0 2 7 12 14 12 14 15 14 11 5 3 2 2 5 5 5 4 2 5 5 5 13 12 5 5 5 5 6 9 14 11 4 2 -0 -0 4 8 10 9
24 20 13 10 13 14 16 16 7 3 10 12 12 14 13 6 6 12 13 12 12 12 7 -2 1 10 7 5 7 5 8 10 7 3 -4 -6 -1 0 2 5 9 10 -1 -2 12 13 11 14 11 9 4 -0 7 13 11 9 5 2 3 3 3 1 1 3 1 2 3 5 9 7 4 6 6 6 7 12 13 7 6 9 3 1 4 7 11 12
25 18 13 13 14 14 15 13 4 -3 -1 6 12 13 11 7 9 12 7 6 15 21 15 3 4 11 7 9 17 16 15 10 5 6 3 3 7 3 1 8 13 9 -3 -3 8 10 12 19 23 18 0 -11 1 11 11 11 10 9 9 5 2 1 2 3 2 4 7 7 6 4 4 6 7 7 9 12 11 7 10 13 5 1 6 7 9 13
29 31 20 11 10 7 4 1 -1 -1 -2 3 9 9 5 7 16 18 6 -1 4 8 7 2 2 5 2 7 19 22 18 11 4 10 20 23 15 3 3 11 12 6 -4 -4 7 7 2 4 10 10 -2 -9 5 15 12 8 8 10 7 3 1 1 1 4 5 7 8 7 6 4 6 7 7 10 12 12 10 6 9 12 5 1 5 6 4 10
12 31 34 20 11 9 8 6 9 13 9 5 8 9 5 2 13 22 7 -7 -2 3 3 3 6 9 1 -3 12 21 15 8 8 17 25 24 17 9 9 10 7 1 -5 -4 6 9 5 3 4 8 8 7 12 14 9 6 6 5 4 6 7 5 7 9 7 9 10 9 7 7 9 9 6 8 11 11 8 4 6 14 12 0 -4 -1 2 11
-4 12 33 34 22 13 14 15 14 15 12 8 6 9 9 6 17 27 5 -12 -1 4 2 6 12 13 4 -3 4 14 14 12 14 16 13 10 10 10 8 5 -0 -2 -1 2 5 5 4 3 3 8 14 15 12 5 -1 -2 -3 -2 1 6 7 5 7 9 8 9 9 6 6 9 11 9 6 8 11 11 11 7 4 11 15 5 -0 3 5 11
-3 -1 16 34 37 25 16 13 9 9 10 7 3 5 8 9 21 25 0 -12 1 1 -5 3 8 6 4 0 -0 11 22 19 11 7 5 4 3 1 3 3 -2 -2 3 4 3 2 4 4 3 4 6 8 8 3 -2 -4 -4 -1 -1 0 7 9 6 8 11 8 7 9 10 8 12 14 8 6 8 12 16 12 4 8 14 9 3 4 5 9
2 0 -2 10 32 35 21 10 8 9 7 6 5 4 4 8 21 22 -1 -14 -5 -2 -4 -1 1 4 9 5 4 20 28 14 2 0 -3 -2 2 2 3 2 -2 1 5 3 2 3 4 4 4 4 1 0 2 1 1 4 5 3 -5 -7 4 10 7 7 9 9 13 14 10 9 18 19 7 4 12 17 15 12 13 15 12 5 2 3 7 11
7 11 5 -3 8 27 29 14 5 5 6 10 13 11 7 6 14 19 7 -3 2 7 8 7 7 13 14 5 8 22 17 0 -1 2 -3 0 7 4 1 -0 -0 4 6 5 5 3 1 4 4 3 1 -0 0 -0 -1 0 3 3 -0 -3 3 14 17 8 3 11 15 10 12 19 19 15 9 8 12 13 9 11 21 20 6 0 4 7 11 12
8 4 6 2 0 23 42 25 0 -3 4 8 6 8 11 9 10 16 13 7 9 10 14 17 13 10 11 9 13 20 10 -8 -8 0 3 7 6 -3 -5 0 2 3 4 4 4 0 1 5 3 2 2 1 2 2 -2 -2 3 5 4 3 7 16 17 3 -2 12 16 11 18 19 9 15 20 11 9 15 9 1 8 13 5 -3 -2 2 8 9
14 -0 0 7 6 21 38 24 4 3 10 10 1 -5 -2 -4 -2 8 11 9 6 3 14 24 7 -9 5 21 21 20 11 -6 -9 1 5 5 1 -3 2 8 5 3 3 2 2 3 4 3 2 0 -2 -1 2 3 1 2 5 3 4 9 14 16 14 7 7 14 13 10 14 14 19 32 22 1 6 17 8 -3 2 9 6 0 -2 -0 5 7
18 12 7 10 13 22 28 16 1 -2 4 14 13 4 -1 -6 -8 -2 4 8 3 -6 7 27 15 -5 1 9 5 5 4 -5 -6 3 6 3 -0 1 8 9 4 2 2 0 1 4 4 3 2 -1 -2 3 4 1 0 3 3 2 7 14 17 17 15 12 13 12 8 7 8 10 25 34 18 4 9 15 16 18 10 1 9 22 16 -1 -3 7
16 12 4 7 14 19 21 10 -6 -12 -8 3 11 9 8 4 -2 -2 2 6 7 4 5 12 12 6 3 -1 -5 -3 -1 2 6 6 5 3 2 4 8 6 3 3 2 2 4 6 5 3 0 1 5 6 3 -1 1 3 1 2 11 17 16 13 11 10 10 9 5 6 8 8 14 22 21 17 12 14 23 15 -6 -5 21 38 21 -8 -11 7
15 8 -2 3 12 15 19 14 -0 -8 -11 -9 -1 6 13 12 1 0 11 10 7 13 10 -3 -5 -0 -0 -3 -2 0 5 15 17 8 1 2 4 7 7 1 -1 -1 -1 4 8 6 5 4 0 2 5 3 0 1 1 1 2 5 13 17 9 4 7 11 12 11 10 12 15 14 10 12 19 18 11 15 22 12 4 17 28 23 8 -9 -10 4
12 11 3 1 8 16 21 13 2 1 -4 -5 4 7 11 18 8 -0 13 18 11 11 9 -2 -4 2 7 4 -2 -4 1 9 10 2 -3 -2 -0 3 3 -1 -1 2 6 10 8 3 1 -1 -3 0 4 4 3 0 -3 1 5 6 11 14 5 -2 2 6 7 11 14 13 12 10 5 8 17 16 10 17 29 32 30 25 15 10 8 -0 -4 5
9 9 10 5 1 6 11 4 4 15 9 -1 5 7 5 15 14 3 3 9 11 11 10 7 6 7 9 11 12 9 3 3 11 14 11 10 8 6 6 5 4 5 7 6 4 3 2 1 2 5 6 5 2 -3 -4 2 7 7 10 13 9 2 1 3 4 7 9 5 5 9 14 20 25 27 31 34 31 29 25 9 1 7 6 -0 3 15
20 5 5 7 1 -2 2 -0 6 27 27 4 -4 2 4 6 7 4 2 5 8 6 3 5 10 11 5 -3 3 12 4 -2 9 16 13 14 14 10 7 7 6 5 4 5 6 3 0 3 6 5 2 0 -1 -1 3 6 7 9 10 10 10 6 5 7 7 6 7 5 5 18 31 28 17 25 46 38 7 -3 -1 -7 6 28 22 6 11 20
32 18 7 8 11 10 8 1 -4 9 26 24 13 12 13 8 3 -3 -7 1 9 8 9 11 14 26 33 17 3 2 -2 -2 6 8 7 11 12 9 5 3 6 6 0 -1 1 0 2 7 8 4 -1 -3 -3 0 4 4 3 5 8 10 9 6 5 7 7 9 11 8 9 22 32 21 5 16 37 23 -4 -3 2 1 26 46 18 -10 0 13
22 25 22 16 15 14 12 14 14 4 1 8 15 18 17 13 17 16 6 6 8 4 10 16 7 13 30 25 9 0 -4 1 10 11 13 14 7 2 0 1 9 12 6 1 0 2 5 5 2 3 -0 -4 -0 3 1 2 4 7 12 13 9 8 9 8 11 13 10 10 19 23 18 11 8 18 27 9 -12 -8 -4 -4 10 8 -24 -31 -2 13
10 13 25 23 15 7 -3 3 20 23 15 7 -1 -1 5 8 19 28 20 14 13 3 2 11 10 10 16 14 9 7 4 6 9 8 10 9 0 -3 -0 3 9 11 4 0 1 3 4 -0 -2 3 2 -2 2 5 5 11 15 13 11 7 5 10 11 10 14 13 10 24 38 28 14 14 16 15 11 -3 -13 -5 6 9 8 -0 -4 13 30 28
5 2 17 26 18 4 -10 -16 -10 0 14 20 7 -3 1 3 7 17 18 16 19 15 9 9 6 4 7 8 9 10 10 9 8 5 6 5 3 5 4 3 10 11 2 -1 3 4 2 -1 -4 -2 1 4 9 13 19 22 18 13 12 14 18 22 18 16 16 8 11 29 32 13 9 22 28 19 5 -2 7 24 35 35 23 13 19 28 21 9
3 -2 8 28 33 18 -2 -11 -9 -11 -12 -3 2 3 3 -2 -7 -1 7 11 16 16 11 5 -1 -5 -5 -3 -1 2 3 5 4 4 5 4 4 6 4 4 13 15 4 -1 3 2 -4 -5 -2 2 9 15 17 16 17 15 13 18 24 26 27 24 16 14 12 7 13 20 11 4 13 19 15 8 -1 2 19 31 34 34 22 8 9 9 0 -4
9 2 -7 6 27 31 16 2 4 11 3 -7 -6 -1 2 5 5 1 -3 -4 0 7 7 4 5 6 1 -6 -9 -9 -7 -5 -5 -5 -3 -1 -1 1 2 5 10 9 4 1 3 1 -4 -1 11 17 17 15 11 7 6 7 12 20 23 20 19 14 9 11 12 11 15 13 7 14 23 15 3 -2 -5 2 16 21 12 -1 -12 -11 0 6 7 7
4 6 -1 -0 6 16 26 21 10 12 15 9 7 4 -6 -10 -5 -1 2 2 -2 1 8 11 12 14 13 9 3 1 2 1 -5 -11 -8 1 5 3 4 8 6 2 3 1 -2 0 4 9 19 23 16 10 8 6 7 10 12 14 15 14 13 12 11 12 11 9 9 9 10 14 15 8 2 1 -0 -1 10 19 4 -22 -21 2 16 19 18 6
3 -0 1 10 8 -1 8 16 9 6 13 15 20 28 22 9 0 -3 1 9 8 5 9 15 13 11 16 19 18 19 24 20 7 -2 -3 5 12 12 16 27 27 14 8 7 8 12 13 13 19 25 19 11 7 7 9 13 13 13 15 15 14 14 13 9 8 7 5 5 8 11 10 8 6 9 8 2 9 19 4 -13 5 24 15 14 15 -12
12 8 1 6 16 15 14 18 10 0 3 5 7 16 23 23 23 16 5 2 4 2 5 14 16 11 10 11 9 7 8 4 -1 -0 0 3 8 9 11 23 29 21 15 15 12 9 9 12 16 14 8 5 8 11 14 15 13 11 13 14 14 12 10 6 4 3 4 10 14 10 4 5 11 18 19 15 21 26 13 7 24 27 13 11 -3 -36
11 13 8 1 3 8 10 16 12 -3 -8 -6 -3 4 7 5 7 12 10 6 1 -9 -13 -3 8 10 9 10 9 6 2 -2 0 7 11 14 19 19 12 11 13 14 13 8 0 1 14 30 30 15 5 10 16 16 14 12 10 10 12 13 11 7 6 7 4 4 10 14 9 1 -3 5 21 34 42 47 48 37 19 12 14 12 11 6 -20 -38
27 21 17 9 9 12 10 9 6 -2 -6 -7 -5 5 15 12 1 -3 4 11 9 -2 -10 -9 -1 5 7 7 9 12 14 12 13 18 21 21 19 16 13 12 13 12 9 4 6 18 29 31 26 19 16 16 13 9 8 9 9 10 10 9 7 6 8 7 6 10 14 4 -6 -3 4 10 20 30 30 20 5 -6 -5 1 -1 -3 2 2 -7 -3
33 30 27 23 22 26 27 23 17 9 3 -0 -2 2 10 14 13 12 15 17 17 21 26 22 9 3 6 8 11 15 16 13 12 13 13 8 6 10 21 34 39 38 32 27 28 34 32 20 14 14 14 11 8 8 10 10 9 10 10 8 5 3 4 4 3 7 7 -1 -4 5 9 6 9 14 7 -7 -17 -13 0 7 6 8 13 13 13 16
Height
5883 5884 5884 5886 5888 5890 5893 5895 5897 5898 5899 5900 5901 5904 5906 5908 5909 5910 5912 5913 5914 5914 5915 5915 5915 5916 5917 5916 5915 5914 5914 5914 5915 5915 5915 5915 5916 5916 5916 5916 5916 5916 5916 5917 5917 5917 5917 5918 5918 5917 5918 5918 5918 5917 5917 5917 5917 5917 5917 5917 5916 5916 5916 5917 5917 5917 5917 5917 5917 5917 5916 5916 5916 5915 5915 5914 5914 5913 5913 5911 5911 5910 5909 5908 5907 5906
5880 5881 5883 5887 5889 5891 5893 5895 5896 5897 5898 5899 5900 5901 5903 5905 5907 5908 5910 5911 5912 5913 5914 5914 5914 5915 5915 5915 5915 5914 5914 5914 5914 5915 5915 5916 5916 5916 5916 5916 5915 5915 5915 5916 5916 5916 5917 5917 5917 5917 5917 5917 5917 5917 5916 5916 5916 5916 5916 5916 5916 5915 5915 5916 5916 5916 5916 5916 5916 5916 5916 5916 5915 5915 5915 5914 5913 5913 5912 5911 5910 5909 5908 5907 5905 5904
5878 5880 5884 5887 5888 5889 5891 5893 5894 5895 5897 5898 5898 5898 5900 5902 5904 5906 5907 5909 5910 5911 5912 5912 5913 5913 5914 5914 5914 5914 5913 5914 5914 5914 5915 5916 5916 5916 5916 5916 5915 5915 5915 5915 5915 5915 5916 5917 5917 5917 5917 5916 5916 5916 5916 5916 5916 5916 5916 5916 5916 5915 5915 5916 5916 5916 5916 5915 5915 5915 5915 5915 5914 5914 5914 5913 5912 5911 5911 5910 5909 5908 5907 5906 5905 5904
5877 5880 5883 5885 5886 5887 5888 5890 5892 5893 5895 5896 5897 5897 5899 5900 5901 5903 5905 5907 5908 5909 5910 5910 5911 5911 5912 5913 5914 5913 5913 5914 5914 5914 5914 5915 5915 5916 5916 5916 5915 5915 5914 5914 5914 5915 5915 5916 5916 5916 5916 5916 5916 5915 5915 5915 5915 5915 5916 5916 5916 5915 5915 5915 5915 5915 5915 5915 5915 5914 5914 5914 5913 5913 5912 5911 5911 5910 5909 5908 5907 5906 5906 5905 5904 5903
5876 5880 5882 5882 5882 5884 5886 5888 5889 5891 5894 5895 5895 5897 5898 5899 5900 5902 5903 5905 5905 5906 5907 5908 5908 5909 5911 5912 5913 5913 5913 5913 5914 5914 5914 5914 5914 5914 5915 5915 5915 5915 5914 5913 5913 5914 5914 5914 5915 5915 5915 5916 5915 5914 5914 5915 5915 5915 5915 5915 5915 5915 5915 5915 5915 5915 5914 5914 5914 5913 5913 5913 5912 5911 5911 5910 5909 5909 5907 5907 5906 5905 5904 5904 5903 5902
5874 5878 5878 5878 5880 5882 5883 5885 5887 5890 5893 5894 5895 5896 5898 5898 5899 5900 5900 5902 5903 5903 5905 5906 5906 5907 5909 5910 5912 5912 5912 5913 5913 5914 5913 5913 5913 5913 5914 5914 5915 5914 5914 5913 5912 5912 5913 5913 5913 5914 5914 5914 5914 5914 5914 5914 5914 5914 5914 5914 5914 5914 5914 5914 5914 5914 5913 5913 5912 5912 5912 5911 5911 5910 5909 5908 5908 5907 5906 5905 5904 5903 5902 5901 5901 5900
5872 5874 5874 5875 5877 5879 5881 5882 5884 5888 5891 5892 5894 5896 5897 5897 5898 5898 5898 5899 5900 5901 5904 5905 5904 5905 5906 5908 5910 5911 5911 5912 5912 5913 5913 5912 5912 5912 5912 5913 5913 5913 5913 5912 5912 5912 5911 5912 5912 5912 5913 5913 5913 5913 5913 5913 5913 5913 5913 5913 5913 5913 5913 5913 5913 5913 5912 5911 5911 5910 5910 5909 5909 5908 5907 5906 5905 5905 5904 5903 5902 5901 5900 5899 5898 5898
5868 5870 5871 5872 5874 5876 5877 5879 5882 5885 5887 5890 5894 5896 5896 5896 5897 5897 5898 5898 5899 5900 5901 5901 5902 5902 5903 5905 5908 5909 5910 5911 5911 5912 5912 5912 5911 5911 5911 5911 5911 5911 5911 5911 5911 5911 5910 5910 5911 5911 5911 5912 5912 5912 5912 5912 5912 5912 5912 5912 5911 5911 5911 5911 5911 5911 5910 5909 5909 5908 5908 5907 5907 5906 5905 5904 5903 5903 5902 5901 5900 5899 5898 5897 5896 5896
5866 5867 5869 5871 5871 5872 5874 5879 5882 5883 5885 5890 5894 5895 5895 5896 5896 5896 5897 5897 5899 5899 5897 5898 5901 5901 5900 5903 5906 5906 5907 5909 5911 5911 5911 5911 5910 5910 5910 5910 5909 5909 5909 5909 5909 5909 5909 5909 5909 5909 5910 5911 5911 5911 5911 5911 5911 5911 5911 5910 5910 5910 5910 5910 5910 5909 5908 5907 5907 5906 5906 5905 5905 5904 5903 5903 5902 5901 5900 5899 5898 5897 5896 5895 5894 5893
5862 5864 5868 5869 5868 5870 5874 5879 5880 5880 5884 5890 5893 5892 5893 5894 5894 5894 5894 5895 5897 5895 5894 5897 5899 5899 5899 5901 5904 5904 5905 5907 5909 5910 5910 5909 5909 5909 5909 5908 5908 5907 5907 5907 5907 5907 5907 5907 5907 5907 5908 5909 5909 5909 5909 5909 5909 5909 5909 5909 5909 5909 5909 5909 5908 5908 5907 5906 5905 5904 5904 5904 5903 5902 5902 5901 5900 5899 5898 5897 5896 5895 5894 5893 5892 5891
5858 5861 5863 5864 5865 5869 5875 5877 5877 5878 5883 5889 5890 5890 5891 5891 5892 5891 5891 5893 5892 5890 5892 5896 5898 5898 5897 5898 5901 5902 5903 5906 5907 5908 5908 5908 5908 5908 5907 5907 5907 5906 5905 5904 5904 5905 5905 5904 5905 5905 5906 5907 5907 5907 5907 5907 5907 5907 5908 5908 5908 5907 5907 5907 5907 5906 5905 5904 5903 5902 5901 5901 5900 5900 5899 5898 5898 5897 5896 5895 5893 5892 5891 5890 5888 5887
5852 5854 5857 5859 5862 5868 5872 5873 5874 5877 5881 5884 5885 5887 5888 5888 5889 5888 5887 5888 5886 5885 5891 5895 5895 5894 5892 5894 5899 5900 5901 5904 5905 5906 5906 5906 5907 5906 5906 5906 5906 5905 5904 5902 5901 5901 5902 5902 5903 5903 5904 5904 5904 5905 5905 5905 5905 5906 5906 5906 5906 5905 5905 5905 5904 5904 5903 5902 5901 5900 5899 5898 5897 5897 5896 5896 5895 5894 5893 5891 5890 5889 5887 5886 5884 5883
5846 5849 5852 5856 5860 5864 5866 5868 5871 5873 5876 5878 5880 5883 5884 5884 5885 5884 5883 5883 5882 5884 5889 5892 5892 5889 5887 5892 5897 5897 5899 5901 5902 5903 5903 5904 5905 5904 5904 5904 5904 5903 5902 5900 5899 5899 5899 5900 5901 5901 5901 5901 5902 5902 5902 5903 5903 5903 5903 5903 5903 5903 5903 5902 5902 5901 5900 5899 5899 5898 5897 5896 5895 5894 5893 5893 5892 5890 5889 5888 5886 5885 5884 5882 5881 5880
5842 5845 5848 5851 5855 5859 5861 5862 5865 5868 5871 5873 5875 5878 5880 5880 5880 5880 5880 5880 5881 5884 5887 5888 5887 5882 5883 5890 5894 5895 5897 5899 5900 5901 5901 5902 5902 5901 5902 5902 5902 5901 5900 5899 5898 5897 5897 5898 5898 5899 5899 5900 5900 5899 5900 5901 5901 5901 5901 5901 5900 5900 5900 5899 5899 5898 5898 5897 5896 5895 5895 5894 5893 5892 5891 5890 5888 5887 5886 5885 5883 5882 5881 5880 5879 5879
5838 5839 5843 5846 5850 5854 5856 5859 5863 5867 5870 5871 5874 5876 5877 5876 5877 5877 5878 5879 5881 5883 5884 5884 5881 5877 5881 5888 5891 5893 5895 5896 5898 5899 5899 5900 5900 5899 5900 5900 5900 5900 5898 5897 5896 5895 5895 5896 5896 5897 5897 5898 5898 5898 5898 5899 5899 5898 5898 5898 5898 5897 5897 5896 5896 5896 5896 5894 5893 5892 5892 5891 5891 5890 5889 5888 5886 5884 5883 5882 5881 5880 5879 5879 5878 5877
5834 5837 5842 5846 5848 5852 5854 5857 5862 5866 5867 5869 5871 5872 5872 5873 5877 5877 5877 5878 5880 5881 5880 5879 5877 5876 5882 5887 5889 5891 5892 5893 5895 5896 5897 5898 5897 5898 5898 5898 5898 5898 5897 5896 5895 5894 5894 5894 5894 5895 5895 5896 5896 5896 5896 5896 5896 5896 5896 5895 5895 5895 5895 5894 5894 5894 5893 5892 5890 5890 5889 5889 5888 5887 5887 5886 5884 5883 5882 5880 5879 5879 5878 5877 5876 5875
5831 5836 5842 5843 5845 5850 5853 5856 5859 5860 5862 5864 5866 5866 5868 5874 5877 5877 5876 5876 5877 5876 5875 5875 5876 5877 5880 5883 5886 5888 5889 5891 5893 5893 5895 5895 5895 5896 5896 5897 5897 5896 5896 5895 5894 5893 5893 5893 5893 5893 5893 5894 5894 5894 5894 5894 5894 5894 5894 5893 5893 5893 5893 5892 5891 5891 5890 5889 5888 5887 5887 5886 5885 5885 5884 5883 5882 5881 5880 5879 5878 5877 5876 5875 5874 5873
5829 5833 5838 5840 5842 5847 5851 5854 5856 5856 5859 5861 5862 5864 5869 5873 5874 5873 5873 5873 5873 5873 5872 5873 5875 5876 5877 5879 5883 5886 5887 5889 5890 5891 5892 5893 5893 5894 5895 5895 5895 5895 5894 5893 5892 5891 5891 5891 5891 5890 5891 5891 5892 5892 5892 5892 5892 5892 5892 5891 5891 5891 5891 5890 5889 5889 5887 5886 5885 5884 5884 5884 5883 5882 5881 5880 5879 5878 5877 5876 5875 5874 5873 5872 5871 5870
5826 5829 5833 5836 5839 5845 5849 5850 5851 5852 5855 5858 5861 5864 5867 5868 5867 5868 5869 5868 5869 5870 5870 5871 5873 5874 5875 5877 5881 5884 5886 5887 5888 5889 5890 5890 5891 5892 5893 5893 5893 5893 5893 5891 5890 5889 5888 5888 5888 5888 5888 5889 5890 5891 5891 5891 5891 5891 5890 5890 5889 5889 5889 5888 5888 5887 5886 5885 5883 5882 5881 5881 5880 5879 5877 5876 5876 5875 5874 5873 5872 5871 5870 5869 5868 5867
5821 5824 5828 5832 5836 5840 5842 5842 5844 5846 5849 5853 5857 5860 5862 5863 5864 5866 5866 5866 5867 5867 5868 5869 5870 5872 5874 5877 5880 5883 5884 5884 5885 5886 5887 5888 5890 5890 5890 5890 5890 5891 5890 5889 5888 5888 5887 5886 5886 5886 5886 5887 5888 5889 5889 5889 5889 5889 5889 5888 5888 5887 5887 5886 5886 5885 5884 5883 5882 5880 5879 5878 5877 5876 5874 5873 5873 5872 5871 5870 5869 5869 5868 5867 5866 5865
5816 5818 5823 5828 5831 5833 5833 5835 5839 5843 5845 5848 5851 5853 5856 5858 5860 5863 5864 5863 5864 5865 5866 5867 5867 5870 5874 5876 5878 5880 5881 5882 5882 5883 5885 5886 5887 5888 5888 5888 5888 5888 5888 5887 5887 5886 5886 5885 5885 5885 5885 5886 5887 5887 5888 5888 5887 5887 5887 5886 5886 5885 5884 5883 5883 5882 5881 5880 5879 5878 5877 5875 5874 5873 5872 5870 5869 5868 5868 5867 5867 5866 5865 5864 5863 5862
5810 5813 5819 5823 5824 5826 5830 5834 5839 5843 5844 5846 5847 5849 5852 5854 5857 5859 5859 5858 5861 5863 5864 5865 5865 5869 5873 5875 5877 5878 5878 5879 5880 5881 5882 5884 5885 5885 5885 5886 5886 5886 5886 5885 5885 5884 5884 5883 5884 5884 5884 5884 5885 5885 5885 5885 5885 5885 5885 5884 5884 5883 5882 5881 5880 5879 5878 5877 5876 5875 5874 5872 5870 5869 5868 5867 5866 5865 5864 5864 5863 5862 5861 5860 5859 5858
5808 5810 5813 5817 5820 5823 5829 5832 5836 5840 5843 5844 5846 5847 5850 5851 5852 5854 5854 5856 5859 5861 5862 5863 5864 5866 5870 5873 5874 5875 5876 5877 5877 5878 5880 5881 5882 5882 5883 5884 5883 5883 5884 5883 5883 5882 5882 5882 5882 5882 5883 5883 5883 5883 5883 5883 5884 5884 5883 5883 5882 5881 5879 5878 5877 5876 5875 5874 5873 5871 5870 5868 5866 5865 5864 5863 5862 5861 5861 5860 5859 5858 5857 5856 5856 5855
5804 5805 5808 5813 5818 5821 5826 5828 5830 5834 5838 5839 5841 5843 5846 5847 5850 5852 5853 5856 5857 5858 5860 5861 5861 5862 5866 5869 5870 5871 5873 5874 5875 5876 5877 5878 5879 5880 5881 5881 5881 5881 5881 5881 5881 5881 5881 5881 5881 5881 5882 5882 5882 5882 5882 5882 5882 5882 5881 5881 5880 5878 5877 5875 5874 5873 5871 5870 5869 5868 5867 5865 5863 5861 5861 5860 5859 5858 5857 5855 5854 5853 5853 5852 5852 5851
5799 5800 5804 5809 5813 5816 5819 5822 5824 5827 5830 5832 5835 5839 5842 5845 5848 5850 5851 5853 5853 5854 5857 5858 5857 5859 5863 5865 5867 5868 5870 5872 5873 5874 5874 5875 5876 5877 5878 5878 5878 5878 5879 5879 5879 5879 5880 5880 5880 5880 5880 5881 5881 5880 5880 5880 5880 5880 5879 5878 5877 5876 5874 5872 5871 5869 5868 5866 5865 5864 5863 5861 5858 5857 5857 5857 5856 5855 5853 5851 5850 5850 5849 5848 5848 5847
5796 5797 5800 5802 5805 5807 5810 5814 5818 5823 5826 5828 5830 5835 5839 5842 5844 5846 5847 5848 5848 5850 5852 5854 5854 5857 5860 5862 5863 5865 5866 5868 5869 5870 5871 5871 5872 5874 5875 5875 5875 5875 5876 5875 5875 5876 5877 5877 5878 5878 5878 5878 5879 5879 5878 5878 5878 5877 5877 5876 5875 5873 5871 5869 5868 5866 5864 5863 5861 5859 5858 5856 5854 5853 5854 5853 5852 5851 5849 5847 5846 5846 5846 5845 5844 5844
5794 5795 5796 5799 5802 5805 5809 5814 5820 5824 5826 5827 5828 5831 5835 5838 5840 5842 5843 5843 5845 5847 5848 5850 5852 5855 5857 5859 5861 5862 5863 5865 5867 5867 5868 5869 5869 5870 5871 5872 5872 5872 5873 5872 5872 5872 5873 5874 5875 5875 5875 5875 5875 5875 5875 5875 5875 5875 5874 5872 5871 5870 5868 5867 5865 5863 5861 5859 5857 5855 5853 5851 5850 5849 5849 5848 5847 5846 5845 5844 5843 5843 5842 5841 5840 5839
5791 5791 5793 5796 5800 5805 5811 5815 5819 5821 5823 5826 5828 5829 5832 5834 5836 5837 5837 5839 5842 5844 5845 5847 5850 5852 5854 5856 5858 5859 5860 5862 5864 5865 5865 5866 5866 5867 5868 5868 5869 5869 5870 5869 5869 5869 5869 5870 5871 5871 5871 5871 5871 5871 5871 5871 5871 5870 5869 5868 5867 5866 5864 5863 5861 5860 5858 5856 5854 5851 5849 5847 5845 5844 5844 5843 5843 5842 5841 5840 5840 5840 5839 5838 5836 5835
5787 5789 5792 5794 5797 5802 5808 5812 5815 5818 5820 5823 5824 5826 5829 5831 5832 5833 5835 5838 5840 5840 5842 5846 5848 5849 5851 5854 5855 5856 5858 5861 5862 5862 5862 5863 5863 5863 5864 5864 5865 5865 5866 5867 5866 5866 5866 5866 5866 5866 5867 5867 5867 5867 5867 5867 5866 5865 5864 5864 5863 5862 5860 5859 5858 5856 5855 5852 5850 5847 5846 5843 5839 5837 5837 5838 5838 5837 5836 5835 5836 5835 5835 5834 5832 5830
5783 5785 5789 5792 5795 5799 5803 5808 5812 5815 5817 5819 5821 5823 5825 5827 5828 5830 5833 5835 5836 5837 5840 5842 5844 5845 5848 5850 5852 5854 5856 5857 5858 5858 5859 5860 5860 5860 5860 5861 5861 5862 5863 5863 5863 5863 5862 5862 5862 5862 5863 5863 5863 5863 5863 5863 5862 5861 5860 5859 5858 5857 5856 5854 5853 5852 5850 5848 5845 5843 5841 5838 5834 5832 5832 5833 5833 5831 5830 5830 5830 5830 5830 5829 5828 5826
5779 5781 5785 5789 5792 5794 5798 5804 5808 5811 5813 5816 5817 5820 5822 5824 5826 5828 5831 5832 5833 5835 5837 5839 5840 5842 5845 5847 5849 5850 5852 5853 5854 5855 5856 5856 5857 5857 5857 5858 5858 5858 5859 5859 5859 5859 5859 5859 5860 5859 5859 5860 5860 5860 5860 5859 5858 5857 5856 5854 5853 5851 5850 5849 5848 5847 5846 5843 5839 5837 5835 5832 5827 5826 5826 5825 5824 5824 5824 5825 5826 5826 5826 5826 5824 5822
5775 5778 5781 5784 5786 5789 5794 5800 5804 5808 5810 5811 5812 5815 5818 5820 5822 5825 5827 5828 5830 5832 5833 5834 5835 5839 5843 5845 5845 5846 5847 5849 5850 5852 5852 5853 5854 5854 5855 5855 5855 5855 5856 5856 5855 5855 5856 5856 5856 5856 5856 5856 5856 5855 5855 5854 5854 5853 5851 5849 5848 5845 5844 5843 5843 5842 5840 5837 5834 5832 5829 5824 5820 5819 5819 5819 5819 5818 5819 5821 5821 5822 5822 5822 5820 5817
5771 5774 5777 5780 5782 5784 5790 5796 5801 5805 5805 5804 5807 5810 5813 5815 5818 5821 5823 5824 5826 5828 5829 5830 5833 5837 5841 5841 5841 5843 5844 5846 5848 5849 5849 5850 5851 5851 5852 5852 5852 5852 5852 5852 5852 5852 5852 5853 5852 5852 5852 5852 5852 5851 5851 5850 5849 5848 5846 5844 5843 5841 5839 5839 5839 5837 5835 5832 5830 5827 5825 5822 5820 5819 5819 5819 5819 5817 5816 5816 5817 5817 5817 5817 5815 5813
5767 5770 5773 5776 5779 5782 5787 5793 5798 5799 5797 5799 5803 5807 5809 5811 5814 5816 5818 5820 5822 5824 5825 5827 5831 5835 5836 5837 5838 5839 5841 5843 5844 5845 5846 5847 5847 5848 5848 5848 5849 5849 5849 5849 5849 5849 5849 5849 5848 5848 5848 5848 5847 5847 5846 5845 5844 5844 5841 5839 5839 5838 5836 5835 5834 5832 5829 5827 5825 5823 5822 5822 5822 5821 5818 5816 5813 5811 5810 5810 5810 5811 5811 5811 5810 5808
5764 5766 5769 5773 5777 5780 5784 5789 5792 5792 5793 5797 5801 5803 5805 5807 5809 5811 5813 5816 5818 5820 5822 5824 5827 5829 5831 5832 5834 5835 5836 5838 5839 5841 5842 5843 5844 5844 5844 5845 5845 5845 5845 5845 5845 5845 5845 5845 5844 5844 5844 5843 5842 5841 5841 5840 5840 5839 5837 5836 5834 5833 5832 5831 5829 5827 5824 5822 5820 5819 5817 5816 5816 5814 5811 5809 5807 5803 5803 5804 5804 5804 5805 5805 5804 5802
5761 5764 5767 5770 5774 5777 5779 5783 5786 5788 5791 5794 5796 5798 5800 5802 5804 5807 5809 5811 5812 5815 5818 5819 5821 5824 5827 5828 5830 5831 5833 5834 5835 5837 5839 5839 5839 5840 5840 5841 5841 5841 5841 5841 5841 5842 5841 5840 5840 5840 5839 5838 5837 5836 5836 5835 5835 5834 5833 5832 5831 5830 5828 5826 5825 5822 5819 5817 5815 5814 5811 5808 5807 5806 5804 5804 5801 5796 5796 5798 5799 5798 5799 5799 5799 5797
5758 5761 5765 5768 5771 5773 5776 5780 5782 5785 5787 5788 5790 5793 5795 5796 5798 5802 5805 5807 5808 5811 5813 5815 5817 5819 5821 5823 5825 5828 5830 5831 5832 5833 5834 5835 5835 5835 5836 5836 5836 5836 5836 5837 5837 5837 5836 5835 5836 5835 5834 5834 5833 5832 5832 5831 5831 5830 5829 5828 5827 5826 5824 5822 5820 5818 5815 5812 5810 5808 5805 5802 5801 5800 5800 5798 5794 5791 5792 5795 5794 5794 5795 5794 5793 5792
5755 5758 5762 5765 5768 5771 5775 5777 5779 5780 5781 5783 5785 5787 5789 5791 5793 5797 5800 5802 5804 5807 5809 5811 5813 5815 5816 5819 5821 5824 5826 5828 5828 5829 5830 5830 5830 5831 5831 5831 5831 5831 5832 5832 5833 5833 5832 5832 5831 5830 5829 5829 5828 5828 5827 5827 5827 5826 5825 5824 5823 5821 5819 5818 5816 5813 5810 5808 5805 5801 5799 5798 5796 5794 5793 5793 5790 5788 5791 5793 5791 5790 5789 5788 5787 5787
5752 5755 5759 5762 5765 5769 5772 5774 5775 5776 5777 5780 5781 5782 5785 5787 5789 5794 5798 5798 5799 5802 5804 5806 5808 5811 5812 5815 5817 5819 5821 5823 5824 5825 5826 5826 5826 5826 5826 5825 5826 5827 5827 5828 5829 5829 5828 5827 5826 5825 5825 5824 5823 5823 5822 5822 5822 5821 5820 5819 5818 5816 5814 5812 5810 5808 5805 5802 5800 5797 5794 5793 5792 5789 5787 5787 5786 5786 5789 5790 5787 5784 5782 5781 5782 5782
5748 5752 5756 5759 5762 5765 5769 5770 5771 5773 5774 5777 5779 5780 5781 5783 5786 5791 5794 5794 5796 5799 5801 5802 5804 5806 5808 5810 5813 5814 5816 5818 5820 5821 5821 5822 5821 5820 5820 5820 5821 5822 5822 5823 5823 5823 5822 5822 5821 5820 5820 5820 5819 5818 5817 5817 5817 5816 5815 5814 5812 5810 5809 5807 5805 5803 5799 5796 5795 5794 5790 5787 5788 5785 5782 5781 5782 5783 5785 5786 5784 5780 5776 5776 5778 5778
5743 5747 5751 5755 5757 5760 5764 5766 5768 5769 5771 5774 5776 5777 5777 5779 5784 5788 5789 5790 5793 5795 5796 5798 5800 5802 5804 5807 5809 5810 5812 5814 5815 5816 5816 5816 5815 5815 5816 5816 5817 5818 5817 5817 5817 5817 5816 5816 5815 5814 5815 5815 5815 5814 5813 5813 5813 5812 5810 5808 5806 5805 5804 5803 5800 5797 5794 5790 5789 5789 5786 5784 5784 5781 5776 5776 5778 5779 5780 5782 5782 5779 5776 5774 5774 5774
5738 5742 5746 5749 5751 5755 5758 5761 5763 5765 5767 5770 5772 5773 5775 5778 5781 5783 5784 5787 5789 5790 5792 5795 5797 5798 5801 5803 5804 5806 5807 5809 5811 5811 5811 5811 5811 5811 5812 5812 5812 5813 5812 5812 5812 5811 5811 5810 5810 5810 5810 5810 5810 5809 5809 5808 5808 5808 5805 5803 5802 5801 5800 5798 5795 5792 5789 5786 5785 5784 5783 5781 5779 5776 5772 5773 5774 5775 5776 5777 5777 5776 5774 5772 5771 5769
5734 5738 5741 5744 5747 5750 5753 5755 5759 5761 5762 5765 5768 5770 5772 5775 5777 5779 5781 5783 5786 5787 5789 5792 5794 5795 5798 5799 5800 5802 5803 5804 5806 5807 5807 5807 5807 5808 5808 5808 5808 5807 5807 5807 5806 5806 5806 5806 5806 5806 5805 5804 5804 5803 5802 5802 5802 5802 5800 5797 5796 5796 5795 5792 5790 5788 5785 5783 5782 5781 5780 5776 5773 5771 5771 5771 5771 5771 5771 5771 5771 5769 5768 5767 5766 5764
5731 5734 5737 5740 5743 5746 5748 5751 5754 5757 5759 5762 5765 5767 5769 5770 5772 5775 5777 5779 5782 5784 5786 5788 5790 5792 5794 5796 5797 5799 5800 5801 5802 5802 5803 5803 5803 5804 5804 5803 5803 5802 5801 5801 5801 5801 5801 5801 5801 5801 5800 5799 5798 5797 5796 5796 5795 5795 5793 5791 5791 5790 5789 5787 5785 5782 5781 5780 5779 5778 5777 5772 5767 5766 5767 5767 5767 5765 5764 5763 5763 5762 5761 5761 5760 5759
5729 5731 5734 5736 5738 5741 5744 5747 5751 5753 5756 5760 5761 5763 5765 5766 5768 5770 5773 5775 5778 5780 5782 5784 5785 5787 5789 5791 5792 5794 5796 5798 5798 5799 5799 5799 5799 5799 5799 5798 5797 5797 5797 5797 5796 5796 5795 5795 5795 5795 5794 5793 5792 5791 5791 5790 5789 5788 5787 5786 5785 5784 5783 5781 5779 5777 5775 5775 5774 5774 5773 5769 5765 5763 5761 5760 5759 5759 5758 5758 5757 5756 5755 5756 5755 5755
5726 5729 5732 5734 5736 5739 5742 5745 5747 5749 5753 5755 5756 5757 5760 5762 5763 5765 5768 5770 5773 5775 5777 5779 5780 5781 5783 5785 5787 5789 5791 5793 5794 5794 5795 5796 5796 5795 5794 5793 5792 5792 5792 5791 5791 5790 5790 5790 5789 5789 5788 5787 5786 5786 5785 5784 5783 5782 5781 5780 5779 5779 5777 5776 5774 5772 5771 5770 5769 5769 5768 5766 5764 5761 5758 5756 5755 5755 5755 5754 5752 5750 5750 5751 5751 5750
5722 5726 5729 5731 5734 5737 5739 5740 5742 5744 5747 5749 5751 5753 5755 5757 5759 5761 5764 5766 5767 5769 5771 5773 5775 5776 5777 5779 5781 5783 5784 5786 5787 5788 5789 5790 5791 5790 5790 5788 5787 5786 5786 5785 5784 5784 5784 5783 5783 5783 5782 5781 5780 5780 5779 5779 5778 5777 5776 5776 5775 5773 5772 5770 5769 5768 5766 5765 5764 5763 5763 5762 5760 5758 5755 5753 5751 5751 5751 5750 5748 5747 5746 5746 5745 5745
5718 5723 5726 5728 5731 5733 5735 5736 5737 5739 5742 5744 5747 5749 5751 5753 5755 5758 5760 5761 5763 5764 5766 5768 5770 5771 5772 5773 5775 5777 5778 5780 5781 5782 5783 5784 5784 5784 5784 5783 5781 5780 5779 5778 5777 5777 5777 5777 5776 5776 5776 5775 5774 5774 5773 5773 5772 5771 5771 5771 5770 5768 5766 5765 5763 5762 5761 5759 5758 5758 5757 5756 5754 5751 5749 5746 5745 5746 5747 5746 5744 5743 5742 5741 5740 5739
5714 5718 5720 5723 5727 5729 5730 5731 5733 5735 5737 5740 5742 5744 5746 5749 5751 5753 5754 5756 5758 5761 5763 5765 5766 5767 5768 5769 5770 5772 5773 5774 5776 5777 5778 5779 5779 5778 5778 5777 5775 5773 5772 5771 5770 5771 5772 5771 5770 5770 5770 5770 5769 5768 5767 5767 5767 5766 5766 5765 5763 5761 5760 5760 5759 5758 5756 5754 5753 5753 5753 5751 5748 5745 5742 5741 5743 5745 5745 5743 5741 5739 5738 5737 5736 5734
5710 5713 5715 5719 5723 5725 5726 5727 5729 5731 5734 5736 5738 5739 5741 5744 5746 5748 5750 5752 5755 5757 5758 5759 5760 5761 5763 5764 5765 5766 5768 5770 5771 5772 5773 5774 5774 5773 5772 5770 5768 5767 5766 5766 5766 5767 5767 5766 5765 5765 5765 5765 5764 5763 5763 5762 5762 5761 5761 5759 5757 5756 5755 5755 5755 5754 5752 5751 5749 5748 5748 5747 5745 5742 5741 5741 5742 5742 5740 5738 5737 5735 5734 5732 5730 5728
5707 5709 5712 5716 5719 5720 5721 5724 5726 5729 5731 5733 5735 5736 5737 5739 5741 5743 5745 5748 5750 5751 5751 5752 5754 5756 5758 5759 5760 5761 5763 5765 5766 5767 5768 5768 5768 5767 5766 5764 5764 5763 5763 5764 5764 5763 5763 5762 5762 5762 5761 5761 5760 5759 5758 5757 5757 5756 5755 5753 5752 5751 5750 5749 5749 5749 5748 5747 5745 5744 5743 5742 5741 5739 5738 5738 5737 5735 5734 5732 5730 5729 5727 5725 5723 5721